Temp
59 59 59 59 60 60 61 61 61 61 61 61 61 61 62 62 63 62 52 56 58 64 63 58 62 64 63 62 64 62 48 46 49 50 53 54 51 50 50 49 47 48 49 52 55
57 58 58 59 59 59 60 60 60 60 60 60 61 61 61 61 60 54 60 64 64 64 57 58 59 61 56 59 59 53 46 47 49 48 49 54 51 47 47 44 43 43 48 51 52
57 57 57 58 58 59 59 60 60 59 59 60 60 60 61 59 56 53 64 64 65 63 58 60 60 58 54 55 52 51 47 51 49 51 53 52 50 50 46 44 46 43 45 47 49
56 56 56 57 57 58 59 59 59 59 59 59 60 60 60 56 46 55 64 64 65 62 58 59 57 52 52 50 54 48 50 51 51 52 52 49 52 48 45 42 49 47 46 46 46
55 55 55 56 56 57 58 59 59 59 59 59 59 60 55 50 49 60 62 61 61 60 58 56 54 53 50 52 52 47 47 50 50 49 48 51 47 45 42 43 45 45 45 43 45
55 55 55 55 56 57 58 59 59 59 59 59 59 60 50 45 56 59 57 58 57 57 55 55 52 55 51 49 47 48 48 48 49 47 47 46 44 46 42 42 43 45 43 42 43
55 55 54 55 56 57 57 59 59 59 59 60 60 59 51 47 54 56 57 55 56 55 53 54 55 55 50 45 50 49 43 44 43 45 43 43 41 41 40 42 41 42 41 42 42
55 54 54 54 55 56 57 58 59 59 60 61 61 53 43 55 52 55 56 55 57 57 54 56 55 53 49 47 47 41 41 33 40 43 42 40 36 39 40 39 38 38 36 40 41
55 54 54 54 55 56 57 58 58 59 61 61 52 49 41 57 51 53 51 51 52 55 54 61 54 46 45 40 34 35 30 34 35 41 39 37 35 42 41 39 38 36 38 40 39
54 54 54 54 55 56 57 58 59 58 58 60 58 45 47 44 49 51 52 52 50 51 51 49 44 37 37 35 29 29 30 34 32 35 36 33 35 39 41 39 38 36 37 37 38
54 53 53 54 55 56 52 49 46 45 44 38 40 42 45 49 50 49 50 49 50 47 37 41 35 30 30 33 36 35 34 33 30 35 31 31 33 37 40 36 34 37 37 37 39
53 53 53 54 55 56 49 44 43 44 36 44 44 44 46 45 43 46 50 43 41 35 39 35 31 32 37 37 37 35 31 28 31 35 31 30 32 35 36 36 37 38 38 38 38
52 53 53 53 55 50 45 44 48 45 37 38 42 42 41 44 38 40 44 42 39 36 32 31 30 36 35 33 34 28 29 27 28 30 31 27 31 35 39 39 38 38 38 38 38
52 52 52 53 48 46 44 47 48 45 25 34 36 39 44 43 35 45 44 40 37 32 30 29 33 33 31 31 30 30 29 31 31 26 25 27 23 29 33 35 39 39 38 39 38
52 52 53 54 43 43 45 49 47 44 14 35 35 45 42 38 36 39 43 41 32 30 31 27 27 29 30 29 29 29 30 29 28 24 23 22 23 29 33 32 32 34 39 38 40
51 52 53 48 43 43 47 45 44 23 16 24 33 33 33 35 35 37 38 41 38 32 30 27 31 28 27 30 30 32 29 28 25 23 12 21 23 25 30 35 35 36 34 36 36
50 50 49 47 41 44 44 41 22 13 30 23 26 31 31 30 31 32 31 29 26 20 24 27 26 27 30 27 30 28 25 16 14 10 15 23 21 25 32 34 35 34 32 32 34
50 48 45 44 42 42 40 29 12 20 21 31 31 31 30 31 29 30 30 26 28 28 20 21 20 26 28 26 25 27 23 17 10 14 20 25 20 27 34 34 34 36 35 35 33
50 40 39 40 43 40 32 12 20 25 31 30 30 25 21 29 27 27 27 23 27 28 24 17 21 26 28 27 25 25 20 25 12 10 11 22 25 31 32 33 32 33 33 30 31
39 38 37 42 41 37 23 25 23 33 33 31 27 26 11 14 23 23 26 26 29 29 24 28 14 26 26 26 26 24 26 20 16 5 5 20 17 23 29 32 32 32 32 32 32
38 34 38 43 39 28 16 19 26 33 34 31 28 19 24 20 21 17 25 27 27 27 29 19 20 19 24 17 22 19 19 19 20 18 12 10 18 23 31 32 32 32 33 33 34
36 28 38 40 26 18 16 24 35 31 30 30 28 29 26 23 19 17 23 26 29 28 28 25 18 10 17 21 23 20 21 22 16 15 13 14 17 31 32 34 33 32 34 34 35
32 30 38 37 17 19 19 24 30 28 29 27 27 30 28 26 20 25 26 26 28 26 22 24 15 6 16 17 20 13 24 27 22 19 11 12 19 34 32 31 32 32 32 33 34
32 25 29 29 23 24 17 22 24 30 28 28 25 27 25 24 26 17 24 27 29 29 34 31 13 17 20 20 16 10 13 24 17 9 17 21 24 29 30 30 31 32 33 33 33
32 29 29 20 21 22 26 28 27 24 24 29 25 22 21 13 15 16 21 22 26 32 27 23 16 12 13 20 17 14 11 19 17 21 20 29 30 30 30 28 32 32 32 33 34
28 29 26 25 25 28 30 24 26 27 23 22 19 29 26 19 24 18 17 20 22 19 16 14 10 8 11 22 21 14 15 15 24 26 24 26 26 31 22 30 29 30 30 30 29
32 31 32 30 27 26 26 30 30 30 29 29 28 26 27 28 24 22 25 27 24 19 17 15 10 10 10 21 18 14 14 17 20 14 24 20 29 30 25 29 27 26 28 28 28
MSLP
1021.03 1021.14 1020.88 1020.57 1020.55 1020.36 1020.06 1019.99 1019.78 1019.75 1019.81 1019.49 1019.42 1019.45 1019.01 1018.62 1018.21 1018.14 1018.96 1019.33 1019.35 1018.74 1018.35 1017.65 1017.11 1016.73 1016.47 1016.18 1015.76 1016.10 1017.20 1017.85 1018.00 1017.97 1018.11 1018.32 1019.44 1020.71 1021.32 1021.94 1022.99 1023.71 1023.98 1024.15 1024.51
1021.33 1021.50 1021.06 1020.61 1020.37 1020.17 1020.02 1019.88 1019.80 1019.65 1019.85 1019.54 1019.35 1019.04 1019.05 1018.67 1018.65 1018.83 1019.63 1019.29 1018.73 1018.58 1018.35 1017.90 1017.32 1016.70 1016.66 1016.23 1016.30 1016.87 1017.83 1018.42 1018.82 1018.92 1019.03 1019.08 1019.88 1021.17 1021.91 1022.84 1023.76 1024.43 1024.78 1025.03 1025.31
1021.60 1021.23 1021.22 1020.60 1020.46 1020.18 1019.89 1019.90 1019.44 1019.72 1019.56 1019.55 1019.25 1019.33 1019.00 1018.83 1018.95 1019.49 1019.31 1018.81 1018.43 1018.22 1018.30 1018.03 1017.44 1017.12 1016.71 1016.52 1016.98 1017.52 1018.40 1018.95 1019.51 1019.51 1019.48 1019.64 1020.50 1021.24 1022.06 1023.13 1023.31 1024.03 1024.82 1025.20 1025.52
1021.27 1021.02 1021.20 1020.83 1020.57 1020.18 1019.82 1019.92 1019.65 1019.47 1019.60 1019.41 1019.44 1019.22 1019.14 1019.15 1019.54 1019.52 1019.05 1018.68 1018.13 1017.99 1018.20 1017.68 1017.38 1017.06 1016.97 1017.15 1017.40 1018.39 1019.21 1019.44 1020.08 1020.08 1019.97 1020.35 1020.72 1021.59 1022.26 1023.24 1023.50 1023.76 1024.59 1025.35 1025.65
1021.08 1021.07 1021.27 1020.89 1020.57 1020.07 1019.88 1019.76 1019.57 1019.33 1019.48 1019.48 1019.41 1019.30 1019.36 1019.50 1019.43 1019.63 1018.99 1018.71 1017.89 1017.80 1017.79 1017.50 1017.37 1017.11 1017.40 1017.58 1018.01 1018.79 1019.74 1020.20 1020.60 1020.76 1020.88 1020.89 1021.29 1021.83 1022.96 1023.59 1023.92 1024.43 1025.14 1025.52 1025.89
1021.20 1021.39 1021.21 1020.66 1020.53 1020.21 1019.88 1019.75 1019.48 1019.30 1019.30 1019.38 1019.35 1019.34 1019.53 1019.83 1019.60 1019.66 1019.12 1018.74 1018.25 1018.06 1017.84 1017.69 1017.73 1017.33 1017.92 1018.31 1018.76 1019.47 1020.12 1020.61 1020.97 1021.25 1021.32 1021.34 1021.66 1021.93 1023.56 1023.96 1024.61 1025.00 1025.54 1026.02 1026.30
1021.06 1021.12 1020.96 1020.86 1020.40 1020.15 1019.88 1019.63 1019.46 1019.05 1019.24 1019.05 1019.27 1019.11 1019.39 1019.53 1019.77 1019.64 1019.26 1018.83 1018.49 1018.24 1018.18 1017.96 1017.86 1017.65 1018.35 1019.02 1019.32 1019.95 1020.80 1021.18 1021.38 1021.40 1021.70 1021.82 1022.30 1022.66 1023.27 1024.19 1025.03 1025.51 1025.92 1026.31 1026.57
1021.12 1021.05 1020.83 1020.64 1020.44 1020.16 1019.94 1019.47 1019.34 1019.11 1019.06 1019.12 1019.04 1019.06 1019.60 1019.72 1019.73 1019.65 1019.41 1018.85 1018.49 1018.20 1018.22 1018.12 1018.00 1018.31 1018.91 1019.51 1019.97 1020.49 1020.92 1021.77 1021.84 1021.81 1021.94 1022.16 1022.49 1023.12 1023.81 1024.50 1025.17 1025.64 1026.00 1026.28 1026.57
1020.96 1020.83 1020.84 1020.63 1020.44 1020.11 1019.71 1019.42 1019.26 1019.07 1019.04 1018.86 1019.09 1019.12 1019.79 1019.80 1019.94 1020.00 1019.78 1019.40 1018.86 1018.39 1018.29 1018.24 1018.27 1019.41 1019.84 1020.21 1020.97 1021.05 1021.37 1021.64 1022.22 1022.22 1022.21 1022.50 1022.96 1022.95 1023.71 1024.42 1025.00 1025.39 1025.74 1026.02 1026.55
1020.88 1020.87 1020.82 1020.54 1020.33 1019.98 1019.63 1019.45 1019.09 1019.00 1018.91 1018.71 1018.90 1019.67 1020.17 1020.28 1020.32 1020.20 1019.77 1019.47 1019.09 1018.74 1018.71 1018.77 1019.37 1020.23 1020.73 1020.97 1021.43 1021.34 1021.50 1021.58 1022.33 1022.90 1022.68 1022.98 1022.89 1023.19 1023.55 1024.02 1024.51 1025.06 1025.48 1025.82 1026.20
1020.83 1020.77 1020.67 1020.42 1020.20 1019.89 1019.65 1019.49 1019.92 1020.00 1019.98 1019.96 1020.23 1020.35 1020.43 1020.49 1020.31 1020.32 1020.08 1019.70 1019.24 1019.29 1019.60 1019.86 1020.81 1021.45 1021.68 1021.44 1021.16 1021.15 1021.39 1021.83 1022.85 1023.24 1023.32 1023.35 1023.16 1022.52 1022.81 1023.52 1024.19 1024.62 1024.94 1025.39 1025.61
1020.75 1020.64 1020.54 1020.31 1020.02 1019.84 1019.92 1020.02 1020.02 1020.24 1020.76 1020.74 1020.62 1020.73 1020.79 1020.98 1020.74 1020.64 1020.40 1020.15 1019.90 1020.24 1020.42 1021.31 1022.11 1022.73 1022.47 1022.13 1021.85 1021.89 1022.29 1022.77 1023.39 1023.57 1023.79 1023.62 1023.11 1021.90 1021.95 1022.46 1023.06 1023.67 1024.19 1024.58 1025.22
1020.63 1020.50 1020.37 1020.19 1019.99 1020.00 1020.02 1020.21 1020.24 1020.17 1020.61 1021.08 1020.90 1020.90 1021.24 1021.27 1021.24 1021.16 1021.05 1020.53 1020.52 1021.08 1021.76 1022.43 1023.52 1023.35 1023.12 1023.13 1023.05 1023.42 1023.50 1023.65 1023.98 1024.08 1024.13 1024.08 1023.44 1021.96 1021.44 1021.52 1022.04 1022.79 1023.28 1023.87 1024.63
1020.53 1020.30 1020.26 1020.22 1020.55 1020.02 1020.17 1020.28 1020.29 1020.35 1021.30 1021.39 1021.36 1021.33 1021.34 1021.26 1021.64 1021.48 1021.46 1021.35 1021.31 1022.28 1023.00 1024.01 1024.29 1024.10 1024.06 1024.48 1024.41 1024.50 1024.49 1024.48 1024.68 1024.94 1024.97 1024.47 1023.94 1022.44 1021.69 1021.65 1021.95 1022.48 1022.95 1023.42 1024.13
1020.27 1020.15 1020.00 1020.09 1020.24 1020.25 1020.39 1020.16 1020.21 1020.51 1021.98 1021.67 1021.61 1021.67 1021.52 1021.76 1022.10 1021.80 1021.68 1021.31 1022.26 1023.20 1023.69 1025.30 1025.30 1025.22 1025.29 1025.58 1025.32 1025.31 1025.29 1025.38 1025.51 1025.66 1025.56 1025.16 1024.65 1022.64 1021.96 1022.00 1022.14 1022.28 1022.57 1023.09 1023.44
1020.27 1020.07 1019.94 1020.10 1020.24 1020.38 1020.27 1020.29 1020.61 1022.24 1022.27 1021.83 1021.83 1021.80 1021.91 1021.94 1022.16 1022.12 1021.96 1021.93 1022.67 1023.64 1024.65 1025.98 1026.19 1026.37 1026.42 1026.43 1026.10 1026.05 1026.22 1026.35 1026.58 1026.87 1026.65 1025.62 1025.03 1023.14 1022.32 1021.61 1021.93 1022.32 1022.72 1022.99 1023.35
1020.38 1020.21 1020.27 1020.22 1020.52 1020.43 1020.51 1020.97 1022.74 1022.82 1022.13 1022.17 1022.06 1022.09 1022.04 1022.41 1022.58 1022.47 1022.57 1022.69 1023.06 1024.31 1025.70 1026.61 1026.99 1027.10 1026.92 1027.00 1026.91 1026.81 1027.08 1027.85 1028.39 1028.32 1027.54 1026.27 1025.73 1022.80 1021.83 1021.56 1021.68 1022.14 1022.53 1022.83 1023.12
1020.37 1020.42 1020.42 1020.54 1020.56 1020.64 1021.00 1022.24 1022.97 1021.71 1021.77 1021.74 1021.88 1022.35 1022.52 1022.62 1022.86 1022.86 1022.95 1023.27 1023.20 1023.58 1025.56 1026.49 1027.73 1027.55 1027.46 1027.40 1027.22 1027.34 1027.41 1027.90 1028.76 1029.24 1028.38 1027.23 1025.59 1022.90 1021.93 1022.07 1022.28 1022.45 1022.74 1022.90 1023.22
1020.20 1020.66 1020.80 1020.72 1020.67 1020.87 1021.65 1022.80 1021.53 1021.05 1020.73 1021.35 1022.31 1022.66 1023.00 1022.97 1023.22 1023.36 1023.37 1023.25 1022.89 1023.27 1024.10 1025.77 1027.42 1028.05 1028.04 1027.99 1028.18 1027.91 1027.90 1028.09 1029.02 1030.13 1029.22 1026.86 1024.89 1023.05 1022.50 1022.62 1022.83 1023.02 1023.16 1023.46 1023.60
1020.30 1020.73 1020.78 1020.74 1020.68 1021.27 1022.28 1022.23 1021.19 1020.16 1020.27 1020.80 1021.29 1021.88 1022.95 1023.42 1023.70 1023.81 1023.51 1022.55 1022.90 1023.10 1023.46 1024.34 1027.26 1028.59 1028.65 1028.54 1028.51 1028.35 1028.40 1028.66 1029.32 1030.44 1029.60 1027.31 1025.47 1023.08 1022.86 1022.75 1023.18 1023.49 1023.60 1023.68 1023.74
1020.24 1020.88 1020.77 1020.74 1021.01 1021.97 1022.66 1022.02 1020.75 1020.11 1019.90 1020.39 1020.65 1021.64 1022.33 1023.02 1023.63 1023.57 1023.14 1022.91 1022.79 1023.41 1023.65 1024.42 1025.63 1029.47 1029.31 1028.86 1028.43 1029.04 1028.76 1028.88 1028.99 1029.12 1028.82 1027.95 1024.95 1021.91 1021.48 1022.00 1022.76 1023.37 1023.64 1023.69 1023.95
1020.26 1021.33 1021.03 1021.01 1021.75 1022.09 1022.16 1021.04 1020.32 1020.21 1020.28 1020.22 1020.40 1020.81 1021.54 1022.31 1023.07 1023.42 1023.01 1022.79 1022.75 1023.15 1024.03 1024.35 1026.31 1028.84 1028.94 1028.99 1028.87 1028.86 1028.47 1028.19 1028.73 1029.11 1028.82 1027.50 1023.95 1021.37 1021.12 1021.63 1022.32 1023.22 1023.27 1023.22 1023.32
1020.03 1020.88 1021.25 1021.20 1021.56 1022.14 1021.72 1021.08 1020.55 1020.44 1020.34 1020.62 1020.74 1020.64 1021.05 1021.75 1022.59 1022.79 1022.81 1023.20 1023.03 1023.39 1023.70 1024.24 1026.25 1028.54 1029.47 1029.77 1029.50 1029.16 1028.20 1027.88 1027.88 1027.97 1027.80 1026.91 1023.38 1021.60 1021.58 1022.04 1022.51 1022.80 1023.03 1023.11 1023.18
1019.44 1020.78 1021.68 1021.58 1021.01 1020.86 1021.40 1020.77 1020.32 1020.07 1020.23 1020.27 1020.59 1020.83 1021.47 1021.95 1022.26 1022.95 1023.44 1023.74 1023.72 1023.85 1024.09 1024.41 1025.59 1026.32 1026.94 1026.96 1027.30 1028.49 1027.75 1027.56 1027.44 1028.08 1026.48 1023.80 1022.59 1021.91 1021.92 1022.07 1022.45 1022.75 1022.80 1022.94 1023.06
1018.39 1018.58 1018.79 1020.33 1020.31 1020.47 1020.04 1019.12 1019.29 1019.72 1020.13 1020.14 1020.83 1020.47 1020.86 1022.23 1022.82 1023.08 1023.62 1024.33 1024.54 1024.56 1024.96 1025.34 1026.59 1026.89 1026.90 1026.65 1026.82 1026.90 1026.85 1026.87 1026.62 1025.61 1024.72 1022.26 1021.89 1021.62 1021.33 1021.89 1022.11 1022.45 1022.91 1023.21 1023.32
1017.23 1017.65 1018.56 1018.14 1018.11 1018.91 1019.00 1017.84 1017.84 1018.35 1018.78 1019.29 1019.55 1019.24 1019.99 1020.79 1020.51 1021.64 1022.42 1023.43 1023.52 1025.26 1025.80 1026.41 1027.30 1027.67 1027.80 1027.04 1026.83 1026.86 1026.23 1026.22 1025.86 1025.18 1023.81 1022.78 1021.01 1020.89 1021.18 1021.82 1022.42 1023.07 1023.35 1023.73 1023.94
1015.66 1015.75 1015.77 1016.74 1017.27 1017.59 1016.48 1015.96 1016.20 1016.94 1017.44 1017.39 1017.76 1018.80 1019.54 1019.39 1020.13 1020.62 1021.22 1021.73 1022.80 1024.11 1025.94 1026.71 1027.60 1028.32 1028.52 1027.48 1027.04 1026.33 1023.89 1024.31 1024.01 1023.31 1022.34 1022.37 1019.83 1020.58 1021.74 1022.36 1023.07 1023.76 1023.96 1024.41 1024.80
Wind_Speed
7 8 7 7 8 10 11 11 10 9 9 8 7 9 9 11 11 2 4 4 7 15 15 7 4 5 2 3 1 3 3 3 3 4 4 4 5 4 3 7 4 5 4 5 11
7 7 8 7 8 9 11 9 9 8 8 8 6 7 9 11 1 7 2 9 9 10 6 7 5 7 1 2 3 3 3 3 2 3 2 4 3 5 4 3 3 3 5 5 5
5 6 8 7 8 8 8 10 8 6 5 6 6 7 8 8 1 1 11 11 10 6 4 4 5 2 2 3 2 2 3 4 2 3 4 3 4 5 7 3 6 7 10 7 4
6 6 7 6 8 8 8 9 7 6 7 6 6 6 7 2 4 2 13 13 12 8 4 3 3 1 3 4 1 5 5 4 3 5 2 2 4 3 3 2 2 6 11 6 6
7 7 7 7 8 8 8 8 7 7 6 6 6 4 3 2 2 6 11 11 5 6 3 2 0 1 4 6 3 4 4 5 5 5 4 1 3 3 4 6 8 10 8 8 6
6 7 7 8 8 7 8 9 8 6 6 6 5 2 2 3 2 6 8 5 6 5 4 5 1 3 5 4 4 3 6 6 5 4 3 2 2 2 3 6 7 8 8 6 8
7 8 7 8 8 8 8 8 8 4 4 3 4 2 2 2 3 7 7 3 3 2 2 3 4 5 4 5 4 7 5 3 4 2 2 2 2 4 5 7 7 5 5 5 5
7 8 8 8 8 8 8 8 6 4 2 2 1 1 2 1 3 6 7 1 5 2 2 4 4 5 4 3 4 2 5 3 2 5 2 1 6 2 7 9 8 8 7 7 7
8 8 8 7 8 9 9 8 7 6 5 4 1 2 1 1 3 4 2 2 6 1 1 3 4 4 3 6 4 1 3 4 2 2 1 2 6 5 9 8 8 9 9 8 7
8 8 7 7 8 8 9 7 7 6 5 2 1 3 2 0 2 4 4 4 2 1 3 3 5 4 3 4 6 6 4 1 4 1 1 1 10 6 9 9 10 8 9 9 9
8 7 6 7 7 7 6 2 3 3 9 1 1 1 1 5 1 4 4 5 1 2 4 2 6 4 3 1 2 0 4 5 2 0 0 4 8 13 8 7 8 8 8 9 10
8 6 7 7 6 6 1 1 2 1 3 1 1 3 2 2 1 4 8 2 2 3 4 6 4 1 1 3 4 3 2 2 2 1 2 4 12 9 4 6 9 10 9 9 7
7 6 7 6 5 3 0 1 1 0 3 0 1 2 1 3 1 2 6 1 3 4 3 6 2 2 1 5 5 4 4 3 2 2 2 4 7 4 3 2 5 5 6 5 10
7 6 6 5 1 2 1 4 0 1 6 3 1 1 1 2 2 2 3 0 4 6 5 6 2 2 4 4 1 4 0 3 3 4 3 2 4 5 1 3 5 6 7 8 8
7 7 8 7 1 2 1 2 1 4 4 1 1 1 1 3 3 4 2 4 4 4 4 2 2 3 3 2 2 3 1 3 1 2 3 2 4 8 4 3 2 3 5 7 8
6 3 2 1 1 1 2 2 4 11 9 1 2 3 4 1 1 1 2 5 5 6 8 3 0 3 2 2 2 4 3 3 4 3 4 3 5 7 6 7 5 4 3 3 6
3 2 1 1 2 3 2 3 8 6 4 4 4 4 3 4 2 3 4 4 7 8 2 1 3 1 2 5 5 2 5 3 5 5 6 1 2 11 4 4 5 4 3 1 3
5 2 3 1 0 2 3 7 5 6 6 2 3 3 5 6 3 4 6 4 4 3 5 7 3 4 1 2 6 4 6 7 8 4 3 4 7 9 4 4 3 4 4 2 2
5 0 0 1 1 2 7 4 11 8 7 10 3 4 3 3 4 4 6 6 8 10 8 6 2 0 3 2 2 4 3 4 8 3 5 4 7 7 3 5 4 5 4 2 1
2 2 2 3 3 4 6 8 6 3 7 4 9 5 8 4 6 6 9 5 7 4 2 6 7 2 1 0 0 3 2 4 3 3 4 5 5 7 7 9 7 6 6 5 2
2 1 1 3 2 6 5 10 5 3 3 7 8 4 5 8 8 6 6 3 4 5 2 4 6 1 3 6 8 1 1 2 3 5 7 2 9 8 11 11 12 9 8 7 6
2 1 1 1 3 3 4 8 4 5 2 3 2 4 8 8 7 3 10 4 6 7 8 5 7 5 6 1 1 2 6 5 7 7 2 3 10 3 6 9 11 9 9 8 7
4 3 1 1 5 4 4 3 3 5 5 6 7 4 2 8 1 5 5 2 4 4 8 7 2 4 6 4 4 5 6 4 4 3 6 8 8 2 5 8 8 10 9 8 5
3 3 2 1 2 6 5 5 5 3 2 4 5 4 3 3 2 6 4 1 1 1 2 2 3 8 10 7 7 6 5 8 7 5 5 10 4 5 8 9 8 8 8 7 6
2 6 7 7 7 5 4 7 8 8 3 5 1 6 10 5 3 4 3 2 2 3 1 4 6 3 2 3 4 6 6 12 11 9 9 7 18 10 10 10 9 9 6 6 5
8 6 0 3 4 16 11 8 12 4 11 8 6 13 9 10 11 12 10 6 7 1 3 2 2 3 3 2 2 4 5 8 16 12 15 13 19 8 3 5 6 7 7 6 5
3 1 6 6 5 8 11 19 13 9 8 6 16 7 12 8 5 2 3 6 9 10 7 7 8 4 6 2 2 10 14 18 9 7 13 15 16 5 4 7 7 6 6 5 5
Wind_Direction
348 338 339 332 342 337 332 331 325 311 299 295 296 305 316 328 315 5 62 282 307 316 321 271 259 290 206 259 60 15 52 259 338 11 168 163 92 10 29 91 52 13 16 89 135
344 328 328 338 341 336 339 336 337 316 298 293 296 304 317 337 298 63 280 320 315 323 345 6 355 358 328 189 42 106 150 162 1 8 21 97 99 148 118 110 88 70 59 100 143
336 337 329 335 330 329 333 342 344 338 309 296 306 306 323 330 334 2 336 332 319 315 249 296 283 235 202 83 30 25 135 131 27 8 348 93 111 139 123 193 178 186 168 167 158
346 341 324 327 327 326 337 335 340 328 322 304 293 305 323 299 211 353 342 329 315 289 283 231 245 237 170 127 95 102 52 74 15 354 28 67 123 96 91 91 31 138 144 143 152
352 334 321 324 326 330 332 329 324 327 303 288 286 295 326 211 191 319 334 325 345 344 233 347 219 251 136 121 88 95 133 73 98 67 53 321 95 144 122 104 105 117 139 158 170
354 326 319 330 322 325 327 322 316 306 309 263 251 281 238 224 248 329 328 338 1 7 15 23 326 17 98 72 82 91 104 125 98 89 43 88 160 109 149 136 121 141 159 142 134
348 338 323 318 324 323 323 324 327 293 287 220 228 229 58 162 343 342 349 280 300 37 18 352 333 68 111 95 132 140 91 103 12 356 59 24 209 243 153 140 152 158 148 149 158
331 335 323 317 318 317 316 323 317 338 294 254 250 220 166 264 322 359 338 359 351 352 64 301 345 85 84 93 70 145 94 139 302 349 323 60 271 226 179 155 184 188 190 185 183
325 332 314 311 313 313 318 314 298 293 289 261 246 133 266 237 39 313 0 328 302 250 279 302 58 116 94 108 44 339 195 181 259 353 16 119 248 221 181 180 201 198 190 179 167
330 324 309 312 311 313 315 297 301 315 302 231 346 31 50 313 312 324 316 314 10 46 49 63 58 80 46 90 199 197 195 191 167 250 107 239 264 253 219 192 209 205 199 186 176
331 321 313 313 312 324 348 4 41 357 39 82 39 89 36 315 269 1 349 340 240 53 121 25 87 182 170 117 124 141 128 128 108 328 338 246 270 270 239 196 206 222 206 199 191
332 317 312 310 311 324 347 49 188 170 115 331 135 87 51 350 126 352 2 98 125 142 108 43 150 284 18 46 85 71 112 89 82 136 66 334 295 282 192 206 192 202 216 203 177
324 313 311 297 307 347 203 157 142 308 91 118 23 79 186 353 103 297 355 321 117 115 56 136 153 324 89 54 99 53 130 116 147 357 276 331 317 334 9 142 185 207 210 200 180
311 307 297 271 354 194 234 150 133 342 63 245 228 17 46 357 359 312 352 34 40 132 103 84 298 102 98 91 42 153 134 114 90 75 194 115 256 305 188 65 64 176 201 218 173
317 302 277 196 237 163 130 132 20 54 23 68 162 336 84 139 127 354 306 11 91 67 104 159 62 73 95 101 2 141 79 97 86 99 73 309 94 266 146 95 126 197 217 229 216
319 275 22 200 62 171 109 57 55 45 257 275 120 161 112 105 72 132 23 45 141 77 39 99 41 60 111 96 35 134 88 50 52 83 38 234 138 273 198 182 173 140 61 25 354
349 302 248 30 214 155 81 64 48 136 331 260 185 166 184 157 164 173 159 154 149 98 159 40 16 29 89 91 4 80 89 18 359 12 216 291 70 237 213 213 182 181 169 24 339
213 299 10 64 173 104 79 56 114 236 207 171 130 116 185 163 186 185 152 194 244 140 125 152 250 172 340 72 170 176 150 155 192 188 212 4 230 259 217 158 123 121 132 98 27
172 308 212 222 159 77 78 89 206 205 161 145 65 135 261 200 160 160 201 200 202 183 140 127 73 50 58 11 80 199 188 144 102 43 56 219 278 319 182 175 114 121 116 122 35
132 172 225 174 130 71 80 234 217 171 128 151 176 158 181 232 150 177 181 216 183 198 147 189 89 15 338 341 335 147 228 96 356 122 254 278 267 228 214 204 169 164 171 181 187
56 146 248 151 73 54 179 227 219 224 165 161 191 152 190 180 177 201 205 278 159 149 84 135 102 247 46 208 170 134 188 39 122 146 166 198 260 214 205 178 176 180 177 175 187
162 176 287 79 93 197 187 199 172 167 90 198 176 150 173 159 171 226 201 202 164 159 166 205 117 142 213 178 346 193 204 169 132 229 215 152 270 278 194 175 156 177 180 182 180
167 126 339 69 181 225 288 254 211 144 195 180 207 201 176 173 140 180 164 311 141 139 166 196 281 75 354 351 352 212 195 191 129 94 204 142 255 160 124 140 186 175 193 195 209
123 134 313 139 214 166 152 232 212 185 199 150 164 79 104 165 58 180 142 210 115 82 130 120 109 159 187 192 131 189 210 178 134 130 183 221 231 211 209 195 199 198 192 185 184
170 210 185 195 235 200 185 181 167 192 221 177 232 201 168 143 61 176 128 109 14 199 66 125 187 134 265 157 125 180 173 187 196 190 181 200 224 217 209 196 200 190 169 157 142
153 170 281 161 169 193 210 221 187 171 153 224 194 202 183 163 184 187 140 191 187 103 143 358 210 102 330 228 192 264 217 203 220 232 261 264 267 214 228 140 120 147 150 156 145
196 53 131 195 165 161 218 217 207 150 223 202 196 140 194 202 134 152 101 108 139 146 158 140 136 112 255 58 114 293 197 193 196 199 202 218 238 139 144 175 163 155 139 126 102